SL-12 R/B(AUX MOTOR), 29682

Orbit data source: Space-Track

SL-12 R/B(AUX MOTOR), 29682 is space debris in HEO originally from a launch on Mon, 25 Dec 2006 UTC launched from the Tyuratam Missile And Space Complex (TTMTR). Debris objects in space refer to the collection of defunct objects orbiting the Earth. Examples of debris include non-operational satellites, rocket bodies, and fragments generated from explosions, collisions, or faulty payload assembly.

Loading next visibility...
SL-12 R/B(AUX MOTOR) details
Identifier
29682, 2006-062H
Orbit
HEO
Last TLE update4 days ago
Origin
Flag of CISKVR (CIS)
ManufacturerRKKE
MissionSpacecraft
Bus & MotorSOZ, Unknown motor
Mass56 kg wet, 56 kg dry
Launch date (UTC)
2006-12-25 (18 years ago)
Launch vehicleUnknown
Launch site
Tyuratam Missile And Space Complex (TTMTR)
Object type
Payload
Rocket body
Debris
Shape & HBRCyl, 1.1 m
Radar Cross Section0.660 m², Medium (>0.1 m² and < 1m²)

Expand to show TLE details & history

TLE from 4 days ago
0 SL-12 R/B(AUX MOTOR)
1 29682U 06062H   24357.04523106  .00000083  00000-0  14548-3 0  9999
2 29682  65.1725 206.3086 5554468 279.2299  24.9925  4.25369113278515
Epoch: 2024-12-22T01:05Z
Definitive object data (Epoch: 2024-12-22T01:05:07.963Z)
Latitude-0.00023°
Longitude98.94608°
Altitude3,851.068 km
Speed7.292 km/s
True Right ascension13h 45m 16s
True Declination0° 00' 01"
Sunlit
Object was in daylight at TLE epoch
Visualization TLE readout
Latitude39.40984°
Longitude-104.86874°
Altitude13,698.27 km
Speed3.867 km/s
Apparent Right ascension23h 37m 43s
Apparent Declination23° 39' 28"
Sunlit
Object is in daylight
Visualization observer readout
Local Sidereal Time09:52:07
Azimuth333.975° NNW
Elevation-21.824°
Doppler factor1
Orbital elements
Apogee altitude18,647.379 km
Perigee altitude774.26 km
Semi-major axis16,088.956 km
Eccentricity0.5554468
Inclination65.1725°
RAAN206.3086°
Arg. of periapsis279.2299°
True anomaly80.91451°
Mean anomaly24.9925°
Eccentric anomaly49.01723°
Mean motion1.06353 °/min
BSTAR0.00014548
Orbital period338.49 mins
Loading maneuver chart data...
Loading historical data...
Loading historical data...
Loading historical data...
Loading historical data...
Loading historical data...
Loading historical data...
Loading historical data...

SL-12 R/B(AUX MOTOR) Visibility forecast

Observer location: undefined°, undefined

Span
Click to sort rows by Start time (UTC) header in descending order
Start Az.
Max El. time (UTC)
Max El. Az.
Max El.
End time (UTC)
End Az.
159 mins2024-12-26 12:20:55.151Z130.175° SE2024-12-26 12:56:55.151Z68.045° E32.28°2024-12-26 14:59:55.151Z29.532° NE
260 mins2024-12-26 18:06:55.151Z257.236° W2024-12-26 19:27:55.151Z344.274° N40.001°2024-12-26 22:26:55.151Z106.523° ESE
201 mins2024-12-27 00:54:55.151Z327.656° NNW2024-12-27 03:16:55.151Z290.888° WNW36.191°2024-12-27 04:15:55.151Z222.442° SW
|